User: anonymous   Login
Location: Unspecified
(0.0000°N, 0.0000°E)
Time: 15:40:52
(UTC+00:00)
Language:

Transit 2A - Orbit

View from above orbital plane
View from above orbital plane
View from above satellite
View from above satellite

Ground track
Ground track

The orbit data is extracted from the following two-line orbital elements,

1 00045U 60007A   15085.23581571  .00000315  00000-0  10436-3 0  9999
2 00045 066.6966 013.8245 0263977 266.0311 091.0577 14.33297194848907
Epoch (UTC): 26 March 2015 05:39:34
Eccentricity: 0.0263977
inclination: 66.6966°
perigee height: 592 km
apogee height: 970 km
right ascension of ascending node: 13.8245°
argument of perigee: 266.0311°
revolutions per day: 14.33297194
mean anomaly at epoch: 91.0577°
orbit number at epoch: 84890

The dashed part of the orbit path shows where the satellite is in the earth's shadow,  

DLR